User: anonymous   Login
Location: Breitenfeld
(46.8500°N, 15.6333°E)
Time: 03:46:36
(UTC+00:00)
Language:

deb r/b Ablestar - Orbit

View from above orbital plane
View from above orbital plane
View from above satellite
View from above satellite

Ground track
Ground track

The orbit data is extracted from the following two-line orbital elements,

1 00235U 61015BT  21289.20712290  .00000222  00000-0  15352-3 0  9993
2 00235  66.9554 223.1275 0166242 179.0641 181.0794 14.08783470 80974
Epoch (UTC): 16 October 2021 04:58:15
Eccentricity: 0.0166242
inclination: 66.9554°
perigee height: 743 km
apogee height: 984 km
right ascension of ascending node: 223.1275°
argument of perigee: 179.0641°
revolutions per day: 14.08783470
mean anomaly at epoch: 181.0794°
orbit number at epoch: 8097

The dashed part of the orbit path shows where the satellite is in the earth's shadow,  

DLR